Hill City, KS

11:56 PM CST on December 10, 2019 (GMT -0600)
Hill City Municipal

Weather History for KHLC - November, 2019

Change the Weather History Date:

Sunday, November 17, 2019

  Actual Average Record
Temperature  
Mean Temperature 46 °F 40 °F  
Max Temperature 60 °F 53 °F 82 °F (1943)
Min Temperature 32 °F 27 °F 0 °F (1959)
Degree Days  
Heating Degree Days 19    
Moisture  
Dew Point 28 °F    
Average Humidity 54    
Maximum Humidity 89    
Minimum Humidity 24    
Precipitation  
Precipitation 0.00 in 0.04 in 0.45 in (2015)
Month to date precipitation T 0.63  
Year to date precipitation 27.57 21.91  
Sea Level Pressure  
Sea Level Pressure 30.06 in    
Wind  
Wind Speed 8 mph ()    
Max Wind Speed 15 mph    
Max Gust Speed -    
Visibility 10.0 miles    
Events      
T = Trace of Precipitation, MM = Missing Value Source: Averaged Metar Reports

Daily Weather History Graph

Daily Weather History Graph

Search for Another Location

Airport or City:

Astronomy

Nov. 17, 2019 Rise Set
Actual Time 7:25 AM CST 5:23 PM CST
Civil Twilight 6:56 AM CST 5:51 PM CST
Nautical Twilight 6:23 AM CST 6:24 PM CST
Astronomical Twilight 5:51 AM CST 6:56 PM CST
Moon 10:01 PM CST (11/17) 12:11 PM CST (11/17)
Length of Visible Light 10h 55m
Length of Day
9h 57m
Waning Gibbous, 73% of the Moon is Illuminated
Nov 17
Waning Gibbous
Nov 19
Last Quarter
Nov 26
New
Dec 4
First Quarter
Dec 11
Full

Hourly Weather History & Observations

Time (CST) Temp. Windchill Dew Point Humidity Pressure Visibility Wind Dir Wind Speed Gust Speed Precip Events Conditions
12:53 AM 48.9 °F - 35.1 °F 59% 30.12 in 10.0 mi NNW 13.8 mph - N/A   Clear
1:53 AM 46.9 °F - 35.1 °F 63% 30.12 in 10.0 mi NNW 12.7 mph - N/A   Scattered Clouds
2:53 AM 46.0 °F 41.4 °F 35.1 °F 66% 30.12 in 10.0 mi NNW 9.2 mph - N/A   Scattered Clouds
3:53 AM 42.1 °F 36.6 °F 34.0 °F 73% 30.14 in 10.0 mi NW 9.2 mph - N/A   Clear
5:53 AM 37.0 °F 31.6 °F 33.1 °F 86% 30.16 in 10.0 mi WNW 6.9 mph - N/A   Clear
7:53 AM 33.1 °F 26.9 °F 30.0 °F 89% 30.16 in 10.0 mi WSW 6.9 mph - N/A   Clear
8:53 AM 37.0 °F 31.0 °F 32.0 °F 82% 30.18 in 10.0 mi West 8.1 mph - N/A   Clear
9:53 AM 46.9 °F - 33.1 °F 59% 30.17 in 10.0 mi WNW 10.4 mph - N/A   Clear
10:53 AM 50.0 °F - 33.1 °F 52% 30.15 in 10.0 mi NW 8.1 mph - N/A   Clear
12:53 PM 57.0 °F - 26.1 °F 30% 30.06 in 10.0 mi WNW 10.4 mph - N/A   Clear
1:53 PM 59.0 °F - 26.1 °F 28% 30.03 in 10.0 mi WNW 12.7 mph - N/A   Clear
2:53 PM 60.1 °F - 23.0 °F 24% 30.01 in 10.0 mi WNW 15.0 mph - N/A   Clear
3:53 PM 59.0 °F - 21.9 °F 24% 29.99 in 10.0 mi WNW 11.5 mph - N/A   Clear
4:53 PM 55.9 °F - 23.0 °F 28% 29.99 in 10.0 mi WNW 5.8 mph - N/A   Clear
5:53 PM 46.0 °F 43.9 °F 21.9 °F 39% 30.01 in 10.0 mi WNW 4.6 mph - N/A   Clear
8:53 PM 37.9 °F 35.5 °F 23.0 °F 55% 29.99 in 10.0 mi WSW 3.5 mph - N/A   Clear
9:53 PM 37.0 °F - 23.0 °F 57% 29.96 in 10.0 mi Calm Calm - N/A   Clear
10:53 PM 39.9 °F 36.7 °F 24.1 °F 53% 29.92 in 10.0 mi WSW 4.6 mph - N/A   Clear
11:53 PM 42.1 °F 37.7 °F 25.0 °F 51% 29.88 in 10.0 mi West 6.9 mph - N/A   Clear